Regional Weather Roundup
Issued by NWS State College, PA

Home | Current Version | Previous Version | Text Only | Print | Product List | Glossary On
Versions: 1 2 3 4 5 6 7 8 9 10 11 12 13 14 15 16 17 18 19 20 21 22 23 24 25 26 27 28 29 30 31 32 33 34 35 36 37 38 39 40 41 42 43 44 45 46 47 48 49 50
000
ASUS41 KCTP 230710
RWRCTP

REGIONAL WEATHER ROUNDUP
NATIONAL WEATHER SERVICE STATE COLLEGE PA
300 AM EDT SAT MAY 23 2015

Note: "fair" indicates few or no clouds below 12,000 feet with no
significant weather and/or obstructions to visibility.

* = STATION THAT DOES NOT REPORT PRECIPITATION /E.G. RAIN...SNOW...ETC/
    THUNDER OR FOG.

PAZ002>004-007>009-013>016-020>023-029>032-230800-
WESTERN PENNSYLVANIA

CITY           SKY/WX    TMP DP  RH WIND       PRES   REMARKS
ERIE           CLEAR     38  31  76 S3        30.35S
MEADVILLE      CLEAR     37  28  70 CALM      30.33S
FRANKLIN*      CLEAR     34  25  69 N3        30.34S
NEW CASTLE     FAIR      35  34  96 CALM      30.35R
BEAVER COUNTY  NOT AVBL
BUTLER*        CLEAR     36  28  75 CALM      30.35R
PITTSBURGH INT PTCLDY    43  33  68 CALM      30.34R
PITTSBURGH     CLEAR     44  20  38 S6        30.33R
INDIANA*       CLEAR     36  32  87 CALM      30.37R
LATROBE        CLEAR     37  32  81 CALM      30.36R
WASHINGTON CO* CLEAR     34  30  86 CALM      30.36S
$$

PAZ004>006-010>012-017>019-024>028-033>037-041-042-045-046-049>053-230800-
CENTRAL PENNSYLVANIA

CITY           SKY/WX    TMP DP  RH WIND       PRES   REMARKS
BRADFORD       CLEAR     31  20  63 NW5       30.32R
DUBOIS         CLEAR     40  20  44 NW3       30.31S
CLEARFIELD     CLEAR     31  26  82 N6        30.33S
JOHNSTOWN      CLEAR     42  16  34 N5        30.31R
ALTOONA        CLEAR     43  21  41 CALM      30.32S
STATE COLLEGE  CLEAR     39  26  61 CALM      30.32S
WILLIAMSPORT   CLEAR     44  27  51 VRB3      30.32R
SELINSGROVE    CLEAR     46  25  43 W5        30.32R
FT INDIANTOWN  CLEAR     48  29  47 VRB3      30.29S
CAPITAL CITY   CLEAR     47  29  49 W5        30.30S
HARRISBURG     CLEAR     52  28  39 NW9       30.29S
YORK           CLEAR     44  33  65 CALM      30.30R
$$

PAZ038>040-043-044-047-048-054-055-060>062-067>071-230800-
EASTERN PENNSYLVANIA

CITY           SKY/WX    TMP DP  RH WIND       PRES   REMARKS
SCRANTON       CLEAR     44  26  49 W7        30.28R
MOUNT POCONO   CLEAR     40  24  53 NW9       30.23R
ALLENTOWN      CLEAR     50  27  40 N9        30.28R
QUAKERTOWN*    SUNNY     48  32  53 N6        30.28R
READING        CLEAR     51  30  44 W6        30.28R
LANCASTER      CLEAR     50  28  42 NW6       30.29R
COATESVILLE    SUNNY     54  30  40 NW14      30.28S
POTTSTOWN      CLEAR     53  28  38 N6        30.29R
BLUE BELL      CLEAR     54  34  47 CALM      30.27R
DOYLESTOWN     CLEAR     48  32  53 CALM      30.27R
WILLOW GROVE   NOT AVBL
NORTH PHILA    CLEAR     55  33  43 N13       30.28R
PHILADELPHIA   PTCLDY    59  30  33 NW13      30.27R
$$


USA.gov is the U.S. government's official web portal to all federal, state and local government web resources and services.